UAL1591 KLAX-KIAH

Flight info

Callsign UAL1591
Flight time 2h 31m
Altitude 37000
Route DOTSS2 CNERY BLH SPTFR Q4 FUSCO DIESL TTORO3
Aircraft B738/M-SDE2E3FGHIRWXY/LB1

Departure

Time 2026-05-03 20:41
Airport Los Angeles International Airport (KLAX)

Arrival

Time 2026-05-03 23:12
Airport George Bush Intercontinental Airport (KIAH)
Time Latitude Longitude Altitude Speed Heading
2026-05-03 20:21 33.94132 -118.39769 94 ft 0 kts 82°
2026-05-03 20:28 33.94132 -118.39773 94 ft 2 kts 82°
2026-05-03 20:28 33.94129 -118.39792 94 ft 2 kts 83°
2026-05-03 20:28 33.94130 -118.39812 94 ft 2 kts 111°
2026-05-03 20:29 33.94138 -118.39828 94 ft 2 kts 141°
2026-05-03 20:29 33.94153 -118.39835 95 ft 2 kts 173°
2026-05-03 20:29 33.94143 -118.39834 95 ft 2 kts 171°
2026-05-03 20:29 33.94128 -118.39831 94 ft 2 kts 172°
2026-05-03 20:30 33.94113 -118.39829 96 ft 2 kts 173°
2026-05-03 20:30 33.94098 -118.39826 95 ft 2 kts 173°
2026-05-03 20:30 33.94083 -118.39825 97 ft 2 kts 175°
2026-05-03 20:30 33.94082 -118.39825 95 ft 0 kts 175°
2026-05-03 20:34 33.94073 -118.39824 95 ft 4 kts 179°
2026-05-03 20:34 33.94047 -118.39826 95 ft 3 kts 181°
2026-05-03 20:34 33.94023 -118.39825 96 ft 3 kts 176°
2026-05-03 20:35 33.94000 -118.39822 98 ft 3 kts 173°
2026-05-03 20:35 33.93967 -118.39816 96 ft 7 kts 167°
2026-05-03 20:35 33.93921 -118.39795 100 ft 7 kts 142°
2026-05-03 20:35 33.93905 -118.39741 102 ft 7 kts 90°
2026-05-03 20:36 33.93910 -118.39684 102 ft 7 kts 82°
2026-05-03 20:36 33.93916 -118.39626 102 ft 7 kts 84°
2026-05-03 20:36 33.93921 -118.39555 102 ft 11 kts 85°
2026-05-03 20:36 33.93935 -118.39444 101 ft 15 kts 81°
2026-05-03 20:37 33.93948 -118.39326 100 ft 14 kts 84°
2026-05-03 20:37 33.93959 -118.39208 100 ft 14 kts 83°
2026-05-03 20:37 33.93970 -118.39099 100 ft 13 kts 83°
2026-05-03 20:37 33.93980 -118.38991 101 ft 13 kts 84°
2026-05-03 20:38 33.93989 -118.38887 101 ft 12 kts 83°
2026-05-03 20:38 33.94000 -118.38785 101 ft 12 kts 82°
2026-05-03 20:38 33.94010 -118.38688 102 ft 12 kts 83°
2026-05-03 20:38 33.94022 -118.38592 102 ft 11 kts 82°
2026-05-03 20:39 33.94032 -118.38498 102 ft 11 kts 83°
2026-05-03 20:39 33.94040 -118.38407 102 ft 11 kts 84°
2026-05-03 20:39 33.94022 -118.38330 105 ft 10 kts 159°
2026-05-03 20:39 33.93964 -118.38330 108 ft 6 kts 213°
2026-05-03 20:40 33.93948 -118.38374 109 ft 6 kts 264°
2026-05-03 20:40 33.93940 -118.38458 109 ft 24 kts 263°
2026-05-03 20:40 33.93888 -118.38969 106 ft 104 kts 263°
2026-05-03 20:40 33.93771 -118.40127 207 ft 167 kts 260°
2026-05-03 20:41 33.93624 -118.41612 928 ft 190 kts 262°
2026-05-03 20:41 33.93485 -118.43214 1977 ft 195 kts 263°
2026-05-03 20:41 33.93399 -118.44858 2814 ft 198 kts 266°
2026-05-03 20:41 33.93253 -118.46489 3650 ft 195 kts 253°
2026-05-03 20:42 33.92666 -118.47958 4409 ft 199 kts 231°
2026-05-03 20:42 33.91722 -118.49274 4784 ft 216 kts 227°
2026-05-03 20:42 33.90627 -118.50635 5036 ft 238 kts 220°
2026-05-03 20:42 33.89338 -118.52045 5351 ft 259 kts 222°
2026-05-03 20:43 33.88058 -118.53618 6188 ft 263 kts 225°
2026-05-03 20:43 33.86723 -118.55089 7135 ft 261 kts 209°
2026-05-03 20:43 33.85018 -118.55833 7965 ft 264 kts 189°
2026-05-03 20:43 33.83172 -118.55775 8782 ft 270 kts 171°
2026-05-03 20:44 33.81354 -118.55292 9627 ft 274 kts 169°
2026-05-03 20:44 33.79484 -118.54756 10347 ft 281 kts 169°
2026-05-03 20:44 33.77494 -118.54198 10583 ft 307 kts 169°
2026-05-03 20:44 33.75345 -118.53609 10968 ft 324 kts 169°
2026-05-03 20:45 33.73125 -118.53004 11654 ft 330 kts 168°
2026-05-03 20:45 33.70998 -118.51911 12401 ft 340 kts 148°
2026-05-03 20:45 33.69280 -118.49911 13171 ft 351 kts 129°
2026-05-03 20:45 33.68180 -118.47243 13883 ft 363 kts 114°
2026-05-03 20:46 33.67347 -118.44352 14495 ft 370 kts 112°
2026-05-03 20:46 33.66527 -118.41402 15107 ft 376 kts 112°
2026-05-03 20:46 33.65670 -118.38418 15740 ft 381 kts 114°
2026-05-03 20:46 33.64788 -118.35393 16358 ft 387 kts 112°
2026-05-03 20:47 33.64321 -118.32166 16925 ft 401 kts 95°
2026-05-03 20:47 33.64317 -118.28791 17546 ft 407 kts 93°
2026-05-03 20:47 33.64360 -118.25364 18110 ft 414 kts 92°
2026-05-03 20:47 33.64404 -118.21887 18623 ft 420 kts 93°
2026-05-03 20:48 33.64437 -118.18355 19102 ft 426 kts 93°
2026-05-03 20:48 33.64455 -118.14771 19541 ft 433 kts 94°
2026-05-03 20:48 33.64461 -118.11133 20008 ft 439 kts 94°
2026-05-03 20:48 33.64461 -118.07449 20468 ft 445 kts 94°
2026-05-03 20:49 33.64457 -118.03712 20957 ft 450 kts 94°
2026-05-03 20:49 33.64452 -117.99930 21412 ft 456 kts 94°
2026-05-03 20:49 33.64445 -117.96101 21858 ft 462 kts 94°
2026-05-03 20:49 33.64439 -117.92223 22298 ft 467 kts 94°
2026-05-03 20:50 33.64431 -117.88358 22722 ft 472 kts 94°
2026-05-03 20:50 33.64422 -117.84341 23153 ft 478 kts 94°
2026-05-03 20:50 33.64395 -117.80387 23567 ft 482 kts 97°
2026-05-03 20:50 33.63847 -117.76460 23884 ft 475 kts 112°
2026-05-03 20:51 33.62901 -117.72667 24303 ft 475 kts 114°
2026-05-03 20:51 33.61907 -117.68879 24712 ft 478 kts 114°
2026-05-03 20:51 33.60903 -117.65061 25093 ft 482 kts 114°
2026-05-03 20:51 33.59909 -117.61205 25470 ft 485 kts 114°
2026-05-03 20:52 33.58928 -117.57317 25847 ft 489 kts 113°
2026-05-03 20:52 33.57952 -117.53397 26219 ft 492 kts 113°
2026-05-03 20:52 33.56977 -117.49453 26582 ft 496 kts 113°
2026-05-03 20:52 33.55994 -117.45474 26943 ft 499 kts 113°
2026-05-03 20:53 33.55005 -117.41481 27303 ft 502 kts 113°
2026-05-03 20:53 33.54006 -117.37459 27643 ft 505 kts 113°
2026-05-03 20:53 33.53001 -117.33418 27989 ft 507 kts 113°
2026-05-03 20:53 33.51989 -117.29361 28329 ft 510 kts 113°
2026-05-03 20:54 33.50969 -117.25280 28642 ft 513 kts 112°
2026-05-03 20:54 33.50156 -117.16636 29225 ft 531 kts 94°
2026-05-03 20:54 33.50152 -117.12198 29553 ft 534 kts 93°
2026-05-03 20:55 33.50171 -117.07731 29846 ft 537 kts 93°
2026-05-03 20:55 33.50174 -117.03247 30122 ft 540 kts 94°
2026-05-03 20:55 33.50149 -116.98733 30361 ft 543 kts 94°
2026-05-03 20:55 33.50099 -116.94205 30589 ft 545 kts 94°
2026-05-03 20:56 33.50032 -116.89659 30861 ft 547 kts 95°
2026-05-03 20:56 33.49958 -116.85105 31180 ft 547 kts 95°
2026-05-03 20:56 33.49881 -116.80551 31508 ft 547 kts 95°
2026-05-03 20:56 33.49804 -116.75999 31793 ft 547 kts 95°
2026-05-03 20:57 33.49727 -116.71435 32055 ft 549 kts 95°
2026-05-03 20:57 33.49677 -116.68406 32227 ft 549 kts 95°
2026-05-03 20:57 33.49599 -116.63832 32508 ft 550 kts 95°
2026-05-03 20:57 33.49520 -116.59253 32794 ft 550 kts 95°
2026-05-03 20:58 33.49440 -116.54670 33049 ft 550 kts 95°
2026-05-03 20:58 33.49354 -116.50089 33336 ft 550 kts 95°
2026-05-03 20:58 33.49272 -116.45502 33583 ft 552 kts 95°
2026-05-03 20:58 33.49188 -116.40897 33805 ft 554 kts 95°
2026-05-03 20:59 33.49116 -116.36284 34079 ft 553 kts 94°
2026-05-03 20:59 33.49051 -116.31690 34413 ft 551 kts 94°
2026-05-03 20:59 33.48985 -116.27107 34677 ft 551 kts 94°
2026-05-03 20:59 33.48917 -116.22524 34925 ft 550 kts 94°
2026-05-03 21:00 33.48847 -116.17950 35202 ft 548 kts 95°
2026-05-03 21:00 33.48799 -116.14932 35427 ft 546 kts 94°
2026-05-03 21:00 33.48699 -116.08864 35815 ft 544 kts 94°
2026-05-03 21:00 33.48691 -116.04339 36121 ft 543 kts 87°
2026-05-03 21:01 33.49391 -115.99906 36387 ft 542 kts 70°
2026-05-03 21:01 33.50640 -115.95663 36715 ft 539 kts 68°
2026-05-03 21:01 33.53288 -115.87214 36784 ft 544 kts 68°
2026-05-03 21:02 33.55833 -115.78764 36793 ft 539 kts 69°
2026-05-03 21:02 33.58281 -115.70319 36790 ft 534 kts 69°
2026-05-03 21:03 33.60708 -115.61913 36806 ft 532 kts 69°
2026-05-03 21:03 33.62734 -115.53400 36779 ft 531 kts 88°
2026-05-03 21:04 33.62528 -115.44576 36806 ft 533 kts 97°
2026-05-03 21:04 33.62035 -115.35642 36794 ft 539 kts 96°
2026-05-03 21:05 33.61624 -115.26640 36791 ft 542 kts 96°
2026-05-03 21:05 33.61278 -115.17606 36790 ft 542 kts 96°
2026-05-03 21:06 33.60935 -115.08580 36788 ft 541 kts 96°
2026-05-03 21:06 33.60578 -114.99579 36794 ft 539 kts 96°
2026-05-03 21:07 33.60211 -114.90615 36802 ft 537 kts 96°
2026-05-03 21:07 33.59841 -114.81688 36811 ft 535 kts 96°
2026-05-03 21:08 33.59131 -114.72860 36807 ft 527 kts 107°
2026-05-03 21:08 33.57508 -114.64321 36803 ft 524 kts 109°
2026-05-03 21:09 33.55809 -114.55835 36802 ft 523 kts 108°
2026-05-03 21:09 33.54158 -114.47334 36802 ft 524 kts 108°
2026-05-03 21:10 33.52527 -114.38777 36819 ft 531 kts 108°
2026-05-03 21:10 33.50870 -114.30087 36813 ft 539 kts 108°
2026-05-03 21:11 33.49184 -114.21295 36824 ft 543 kts 108°
2026-05-03 21:11 33.47481 -114.12447 36820 ft 547 kts 108°
2026-05-03 21:12 33.45787 -114.03674 36791 ft 541 kts 108°
2026-05-03 21:12 33.44093 -113.94949 36850 ft 536 kts 108°
2026-05-03 21:13 33.42398 -113.86266 36918 ft 535 kts 108°
2026-05-03 21:13 33.40701 -113.77596 36983 ft 535 kts 108°
2026-05-03 21:14 33.38846 -113.68984 37006 ft 533 kts 113°
2026-05-03 21:14 33.36529 -113.60567 37006 ft 533 kts 115°
2026-05-03 21:15 33.34125 -113.52163 36959 ft 535 kts 114°
2026-05-03 21:15 33.31750 -113.43716 36909 ft 537 kts 114°
2026-05-03 21:16 33.29394 -113.35233 36833 ft 538 kts 114°
2026-05-03 21:16 33.27035 -113.26734 36816 ft 539 kts 114°
2026-05-03 21:17 33.25049 -113.19610 36818 ft 540 kts 114°
2026-05-03 21:17 33.22282 -113.09726 36813 ft 539 kts 114°
2026-05-03 21:18 33.19899 -113.01244 36823 ft 538 kts 114°
2026-05-03 21:18 33.17515 -112.92781 36822 ft 538 kts 114°
2026-05-03 21:19 33.15125 -112.84325 36819 ft 538 kts 114°
2026-05-03 21:19 33.12729 -112.75870 36834 ft 538 kts 114°
2026-05-03 21:20 33.10333 -112.67438 36830 ft 535 kts 114°
2026-05-03 21:20 33.07943 -112.59050 36828 ft 534 kts 114°
2026-05-03 21:21 33.05552 -112.50680 36825 ft 533 kts 114°
2026-05-03 21:21 33.03225 -112.42287 36815 ft 534 kts 113°
2026-05-03 21:22 33.00936 -112.33872 36826 ft 533 kts 113°
2026-05-03 21:22 32.98639 -112.25471 36829 ft 533 kts 113°
2026-05-03 21:23 32.96339 -112.17131 36839 ft 534 kts 113°
2026-05-03 21:23 32.94009 -112.08724 36863 ft 535 kts 113°
2026-05-03 21:24 32.91666 -112.00296 36875 ft 537 kts 113°
2026-05-03 21:24 32.89313 -111.91849 36882 ft 538 kts 113°
2026-05-03 21:25 32.86948 -111.83386 36888 ft 540 kts 113°
2026-05-03 21:25 32.84572 -111.74907 36898 ft 541 kts 113°
2026-05-03 21:26 32.82187 -111.66418 36888 ft 542 kts 113°
2026-05-03 21:26 32.79794 -111.57927 36870 ft 542 kts 113°
2026-05-03 21:27 32.77393 -111.49435 36876 ft 542 kts 114°
2026-05-03 21:27 32.74988 -111.40949 36887 ft 542 kts 114°
2026-05-03 21:28 32.72577 -111.32471 36901 ft 541 kts 114°
2026-05-03 21:28 32.70163 -111.24005 36895 ft 541 kts 114°
2026-05-03 21:29 32.67743 -111.15546 36899 ft 541 kts 114°
2026-05-03 21:29 32.65320 -111.07096 36896 ft 541 kts 114°
2026-05-03 21:30 32.62892 -110.98654 36891 ft 540 kts 114°
2026-05-03 21:30 32.60460 -110.90225 36897 ft 540 kts 114°
2026-05-03 21:31 32.58022 -110.81798 36912 ft 540 kts 114°
2026-05-03 21:31 32.55577 -110.73372 36917 ft 541 kts 114°
2026-05-03 21:32 32.53124 -110.64942 36915 ft 541 kts 114°
2026-05-03 21:32 32.50666 -110.56518 36928 ft 541 kts 114°
2026-05-03 21:33 32.48202 -110.48095 36925 ft 541 kts 114°
2026-05-03 21:33 32.45748 -110.39732 36940 ft 542 kts 114°
2026-05-03 21:34 32.43266 -110.31299 36936 ft 543 kts 115°
2026-05-03 21:34 32.40774 -110.22852 36928 ft 543 kts 114°
2026-05-03 21:35 32.38275 -110.14412 36917 ft 544 kts 115°
2026-05-03 21:35 32.35767 -110.05962 36914 ft 546 kts 115°
2026-05-03 21:36 32.33246 -109.97480 36894 ft 546 kts 115°
2026-05-03 21:36 32.30723 -109.89017 36889 ft 545 kts 115°
2026-05-03 21:37 32.28713 -109.80367 36894 ft 550 kts 101°
2026-05-03 21:37 32.27667 -109.71415 36894 ft 550 kts 100°
2026-05-03 21:38 32.26693 -109.62472 36898 ft 548 kts 100°
2026-05-03 21:38 32.25655 -109.53570 36891 ft 547 kts 101°
2026-05-03 21:39 32.24570 -109.44689 36896 ft 546 kts 101°
2026-05-03 21:39 32.23470 -109.35822 36893 ft 545 kts 101°
2026-05-03 21:40 32.22368 -109.26959 36899 ft 545 kts 101°
2026-05-03 21:40 32.21264 -109.18098 36902 ft 545 kts 101°
2026-05-03 21:41 32.20154 -109.09234 36911 ft 546 kts 101°
2026-05-03 21:41 32.19036 -109.00362 36959 ft 547 kts 101°
2026-05-03 21:42 32.17919 -108.91543 36989 ft 547 kts 101°
2026-05-03 21:42 32.16787 -108.82665 37034 ft 547 kts 101°
2026-05-03 21:43 32.15650 -108.73789 37045 ft 547 kts 101°
2026-05-03 21:43 32.14505 -108.64912 37035 ft 547 kts 101°
2026-05-03 21:44 32.13356 -108.56044 37021 ft 546 kts 101°
2026-05-03 21:44 32.12201 -108.47189 36997 ft 546 kts 101°
2026-05-03 21:45 32.11236 -108.39827 36967 ft 546 kts 101°
2026-05-03 21:45 32.10071 -108.30981 36962 ft 546 kts 101°
2026-05-03 21:46 32.08899 -108.22133 36965 ft 546 kts 101°
2026-05-03 21:46 32.07721 -108.13286 36961 ft 546 kts 101°
2026-05-03 21:47 32.06537 -108.04445 36979 ft 546 kts 100°
2026-05-03 21:47 32.05348 -107.95613 37012 ft 546 kts 101°
2026-05-03 21:48 32.04153 -107.86783 37031 ft 545 kts 101°
2026-05-03 21:48 32.02952 -107.77957 37039 ft 545 kts 101°
2026-05-03 21:49 32.01745 -107.69135 37042 ft 545 kts 101°
2026-05-03 21:49 32.00531 -107.60312 37014 ft 546 kts 101°
2026-05-03 21:50 31.99311 -107.51486 37000 ft 546 kts 101°
2026-05-03 21:50 31.98084 -107.42661 36977 ft 546 kts 101°
2026-05-03 21:51 31.96852 -107.33842 36986 ft 546 kts 101°
2026-05-03 21:51 31.95613 -107.25017 36986 ft 546 kts 101°
2026-05-03 21:52 31.94375 -107.16251 36965 ft 547 kts 101°
2026-05-03 21:52 31.93124 -107.07433 37011 ft 546 kts 101°
2026-05-03 21:53 31.91866 -106.98612 37029 ft 546 kts 101°
2026-05-03 21:53 31.90602 -106.89802 37075 ft 546 kts 101°
2026-05-03 21:54 31.89334 -106.80997 37100 ft 546 kts 101°
2026-05-03 21:54 31.88059 -106.72195 37098 ft 546 kts 101°
2026-05-03 21:55 31.86779 -106.63407 37098 ft 545 kts 101°
2026-05-03 21:55 31.85494 -106.54616 37086 ft 545 kts 101°
2026-05-03 21:56 31.84201 -106.45819 37113 ft 546 kts 101°
2026-05-03 21:56 31.82901 -106.37015 37137 ft 547 kts 101°
2026-05-03 21:57 31.81593 -106.28202 37109 ft 547 kts 101°
2026-05-03 21:57 31.80445 -106.19355 37080 ft 547 kts 98°
2026-05-03 21:58 31.79451 -106.10482 37044 ft 547 kts 98°
2026-05-03 21:58 31.78446 -106.01612 37013 ft 547 kts 98°
2026-05-03 21:59 31.77399 -105.92753 36989 ft 548 kts 98°
2026-05-03 21:59 31.76331 -105.83900 36981 ft 547 kts 98°
2026-05-03 22:00 31.75257 -105.75050 36976 ft 547 kts 98°
2026-05-03 22:00 31.74180 -105.66217 36985 ft 546 kts 98°
2026-05-03 22:01 31.73108 -105.57453 36993 ft 545 kts 98°
2026-05-03 22:01 31.72023 -105.48637 36981 ft 545 kts 98°
2026-05-03 22:02 31.70932 -105.39826 36992 ft 545 kts 98°
2026-05-03 22:02 31.69834 -105.31014 36984 ft 545 kts 98°
2026-05-03 22:03 31.68731 -105.22206 36997 ft 546 kts 98°
2026-05-03 22:03 31.67620 -105.13388 36986 ft 546 kts 98°
2026-05-03 22:04 31.66502 -105.04566 36998 ft 547 kts 98°
2026-05-03 22:04 31.65376 -104.95730 36994 ft 548 kts 98°
2026-05-03 22:05 31.64243 -104.86890 37000 ft 549 kts 98°
2026-05-03 22:05 31.63101 -104.78025 37007 ft 550 kts 98°
2026-05-03 22:06 31.61951 -104.69156 37003 ft 550 kts 98°
2026-05-03 22:06 31.60796 -104.60290 36990 ft 550 kts 98°
2026-05-03 22:07 31.59636 -104.51436 36989 ft 548 kts 98°
2026-05-03 22:07 31.58473 -104.42610 37014 ft 547 kts 98°
2026-05-03 22:08 31.57306 -104.33799 37002 ft 546 kts 98°
2026-05-03 22:08 31.56135 -104.25008 37007 ft 545 kts 99°
2026-05-03 22:09 31.54959 -104.16228 37005 ft 545 kts 99°
2026-05-03 22:10 31.53186 -104.03078 37002 ft 544 kts 98°
2026-05-03 22:10 31.51998 -103.94318 37005 ft 544 kts 99°
2026-05-03 22:11 31.50804 -103.85568 37010 ft 544 kts 99°
2026-05-03 22:11 31.49603 -103.76808 37030 ft 544 kts 99°
2026-05-03 22:12 31.48396 -103.68050 37041 ft 545 kts 99°
2026-05-03 22:12 31.47184 -103.59294 37064 ft 545 kts 99°
2026-05-03 22:13 31.46030 -103.50525 37064 ft 545 kts 97°
2026-05-03 22:13 31.44979 -103.41739 37065 ft 545 kts 97°
2026-05-03 22:14 31.43930 -103.32958 37046 ft 544 kts 97°
2026-05-03 22:14 31.42857 -103.24189 37029 ft 544 kts 97°
2026-05-03 22:15 31.41776 -103.15491 37002 ft 543 kts 98°
2026-05-03 22:15 31.40682 -103.06748 36995 ft 542 kts 98°
2026-05-03 22:16 31.39579 -102.97969 36993 ft 541 kts 98°
2026-05-03 22:16 31.38487 -102.89324 36996 ft 540 kts 98°
2026-05-03 22:17 31.37385 -102.80639 36995 ft 539 kts 98°
2026-05-03 22:17 31.36278 -102.71975 37012 ft 538 kts 98°
2026-05-03 22:18 31.35167 -102.63319 37004 ft 538 kts 98°
2026-05-03 22:18 31.34051 -102.54670 37009 ft 538 kts 98°
2026-05-03 22:19 31.32927 -102.46009 37013 ft 539 kts 98°
2026-05-03 22:19 31.31795 -102.37333 37030 ft 540 kts 98°
2026-05-03 22:20 31.30654 -102.28636 37019 ft 542 kts 98°
2026-05-03 22:20 31.29505 -102.19926 37033 ft 542 kts 98°
2026-05-03 22:21 31.28349 -102.11206 37017 ft 543 kts 98°
2026-05-03 22:21 31.27185 -102.02475 37047 ft 544 kts 98°
2026-05-03 22:22 31.26015 -101.93743 37035 ft 544 kts 98°
2026-05-03 22:22 31.24839 -101.85017 37048 ft 544 kts 98°
2026-05-03 22:23 31.23658 -101.76295 37044 ft 543 kts 98°
2026-05-03 22:23 31.22472 -101.67588 37052 ft 542 kts 98°
2026-05-03 22:24 31.21282 -101.58890 37054 ft 542 kts 98°
2026-05-03 22:24 31.20088 -101.50204 37064 ft 541 kts 98°
2026-05-03 22:25 31.18898 -101.41595 37058 ft 540 kts 98°
2026-05-03 22:25 31.17703 -101.32939 37070 ft 540 kts 97°
2026-05-03 22:26 31.16896 -101.24237 37070 ft 538 kts 93°
2026-05-03 22:26 31.16297 -101.15529 37083 ft 538 kts 92°
2026-05-03 22:27 31.15684 -101.06823 37075 ft 538 kts 93°
2026-05-03 22:27 31.15021 -100.98122 37080 ft 538 kts 94°
2026-05-03 22:28 31.14332 -100.89419 37082 ft 539 kts 94°
2026-05-03 22:28 31.13636 -100.80712 37080 ft 539 kts 94°
2026-05-03 22:29 31.12937 -100.72003 37089 ft 539 kts 94°
2026-05-03 22:29 31.12234 -100.63294 37087 ft 539 kts 94°
2026-05-03 22:30 31.11525 -100.54593 37085 ft 539 kts 94°
2026-05-03 22:30 31.10811 -100.45895 37095 ft 538 kts 94°
2026-05-03 22:31 31.10212 -100.38661 37086 ft 539 kts 94°
2026-05-03 22:31 31.09487 -100.29965 37085 ft 538 kts 94°
2026-05-03 22:32 31.08757 -100.21273 37076 ft 538 kts 94°
2026-05-03 22:32 31.08020 -100.12583 37083 ft 538 kts 94°
2026-05-03 22:33 31.07278 -100.03897 37072 ft 538 kts 94°
2026-05-03 22:33 31.06530 -99.95213 37080 ft 538 kts 95°
2026-05-03 22:34 31.05777 -99.86535 37064 ft 538 kts 95°
2026-05-03 22:34 31.05018 -99.77856 37075 ft 538 kts 95°
2026-05-03 22:35 31.04253 -99.69181 37071 ft 538 kts 95°
2026-05-03 22:35 31.03481 -99.60501 37087 ft 538 kts 95°
2026-05-03 22:36 31.02705 -99.51825 37087 ft 538 kts 95°
2026-05-03 22:36 31.01922 -99.43153 37096 ft 538 kts 95°
2026-05-03 22:37 31.01139 -99.34531 37094 ft 538 kts 95°
2026-05-03 22:37 31.00344 -99.25857 37102 ft 538 kts 95°
2026-05-03 22:38 30.99545 -99.17190 37094 ft 538 kts 95°
2026-05-03 22:38 30.98738 -99.08516 37109 ft 538 kts 95°
2026-05-03 22:39 30.97927 -98.99845 37110 ft 539 kts 96°
2026-05-03 22:39 30.97109 -98.91170 37111 ft 539 kts 96°
2026-05-03 22:40 30.96277 -98.82497 37109 ft 538 kts 97°
2026-05-03 22:40 30.95145 -98.73881 37127 ft 538 kts 100°
2026-05-03 22:41 30.93864 -98.65289 37107 ft 538 kts 100°
2026-05-03 22:41 30.92618 -98.56696 37123 ft 538 kts 99°
2026-05-03 22:42 30.91407 -98.48089 37116 ft 538 kts 99°
2026-05-03 22:42 30.90199 -98.39484 37143 ft 539 kts 99°
2026-05-03 22:43 30.88982 -98.30881 37140 ft 539 kts 100°
2026-05-03 22:43 30.87755 -98.22268 37151 ft 539 kts 100°
2026-05-03 22:44 30.86521 -98.13652 37140 ft 540 kts 100°
2026-05-03 22:44 30.85280 -98.05030 37141 ft 540 kts 100°
2026-05-03 22:45 30.84035 -97.96410 37120 ft 541 kts 100°
2026-05-03 22:45 30.82777 -97.87780 37134 ft 541 kts 101°
2026-05-03 22:46 30.81502 -97.79125 36619 ft 547 kts 101°
2026-05-03 22:46 30.80857 -97.74767 36038 ft 546 kts 100°
2026-05-03 22:46 30.80214 -97.70422 35414 ft 546 kts 100°
2026-05-03 22:46 30.79577 -97.66127 34774 ft 547 kts 100°
2026-05-03 22:47 30.78929 -97.61762 34067 ft 549 kts 100°
2026-05-03 22:47 30.78277 -97.57385 33279 ft 550 kts 100°
2026-05-03 22:47 30.77622 -97.52999 32542 ft 550 kts 100°
2026-05-03 22:47 30.76967 -97.48618 31793 ft 550 kts 100°
2026-05-03 22:48 30.76311 -97.44243 31033 ft 550 kts 100°
2026-05-03 22:48 30.75653 -97.39866 30337 ft 548 kts 100°
2026-05-03 22:48 30.74999 -97.35524 29737 ft 542 kts 100°
2026-05-03 22:48 30.74350 -97.31230 29103 ft 537 kts 101°
2026-05-03 22:49 30.73707 -97.26984 28537 ft 530 kts 101°
2026-05-03 22:49 30.73070 -97.22783 27958 ft 525 kts 101°
2026-05-03 22:49 30.72439 -97.18629 27405 ft 519 kts 101°
2026-05-03 22:49 30.71813 -97.14524 26851 ft 514 kts 101°
2026-05-03 22:50 30.71192 -97.10456 26303 ft 509 kts 101°
2026-05-03 22:50 30.70575 -97.06424 25758 ft 504 kts 101°
2026-05-03 22:50 30.69963 -97.02435 25348 ft 497 kts 101°
2026-05-03 22:50 30.69363 -96.98538 25080 ft 485 kts 101°
2026-05-03 22:51 30.68770 -96.94689 24567 ft 482 kts 101°
2026-05-03 22:51 30.68181 -96.90879 24066 ft 478 kts 101°
2026-05-03 22:51 30.67594 -96.87089 23481 ft 476 kts 101°
2026-05-03 22:51 30.67009 -96.83318 22880 ft 472 kts 101°
2026-05-03 22:52 30.66430 -96.79586 22320 ft 468 kts 101°
2026-05-03 22:52 30.65854 -96.75883 21775 ft 463 kts 100°
2026-05-03 22:52 30.65284 -96.72222 21232 ft 459 kts 100°
2026-05-03 22:52 30.64716 -96.68598 20769 ft 453 kts 100°
2026-05-03 22:53 30.64154 -96.65028 20295 ft 447 kts 100°
2026-05-03 22:53 30.63595 -96.61493 19788 ft 443 kts 100°
2026-05-03 22:53 30.63041 -96.57994 19261 ft 439 kts 100°
2026-05-03 22:53 30.62491 -96.54520 18727 ft 436 kts 100°
2026-05-03 22:54 30.61945 -96.51072 18162 ft 432 kts 100°
2026-05-03 22:54 30.61403 -96.47658 17607 ft 428 kts 100°
2026-05-03 22:54 30.60861 -96.44277 17070 ft 424 kts 101°
2026-05-03 22:54 30.59905 -96.41069 16449 ft 421 kts 120°
2026-05-03 22:55 30.58273 -96.38294 15986 ft 413 kts 128°
2026-05-03 22:55 30.56542 -96.35652 15478 ft 409 kts 129°
2026-05-03 22:55 30.54828 -96.33037 14975 ft 405 kts 128°
2026-05-03 22:55 30.53152 -96.30428 14471 ft 402 kts 128°
2026-05-03 22:56 30.51502 -96.27827 13971 ft 399 kts 128°
2026-05-03 22:56 30.49868 -96.25242 13470 ft 394 kts 127°
2026-05-03 22:56 30.48257 -96.22697 12901 ft 391 kts 127°
2026-05-03 22:56 30.46656 -96.20171 12382 ft 387 kts 127°
2026-05-03 22:57 30.45070 -96.17670 11861 ft 383 kts 126°
2026-05-03 22:57 30.43499 -96.15196 11355 ft 379 kts 126°
2026-05-03 22:57 30.41945 -96.12748 10874 ft 375 kts 126°
2026-05-03 22:57 30.40428 -96.10360 10696 ft 362 kts 126°
2026-05-03 22:58 30.38959 -96.08049 10485 ft 350 kts 125°
2026-05-03 22:58 30.37534 -96.05812 10314 ft 340 kts 125°
2026-05-03 22:58 30.35951 -96.03846 10111 ft 332 kts 143°
2026-05-03 22:58 30.33922 -96.02652 9933 ft 323 kts 161°
2026-05-03 22:59 30.31814 -96.01857 9826 ft 314 kts 163°
2026-05-03 22:59 30.29764 -96.01132 9783 ft 302 kts 163°
2026-05-03 22:59 30.27747 -96.00421 9238 ft 308 kts 163°
2026-05-03 22:59 30.25699 -95.99690 8872 ft 309 kts 162°
2026-05-03 23:00 30.23654 -95.98950 8553 ft 307 kts 162°
2026-05-03 23:00 30.21654 -95.98220 8334 ft 303 kts 162°
2026-05-03 23:00 30.19673 -95.97494 8201 ft 295 kts 162°
2026-05-03 23:00 30.17745 -95.96786 8074 ft 287 kts 162°
2026-05-03 23:01 30.15868 -95.96098 7957 ft 279 kts 161°
2026-05-03 23:01 30.14040 -95.95427 7855 ft 272 kts 161°
2026-05-03 23:01 30.12264 -95.94772 7792 ft 264 kts 161°
2026-05-03 23:01 30.10545 -95.94135 7725 ft 255 kts 161°
2026-05-03 23:02 30.08884 -95.93521 7658 ft 247 kts 161°
2026-05-03 23:02 30.07256 -95.92919 7632 ft 245 kts 161°
2026-05-03 23:02 30.05636 -95.92321 7592 ft 245 kts 161°
2026-05-03 23:02 30.04006 -95.91719 7535 ft 246 kts 160°
2026-05-03 23:03 30.02441 -95.90951 7462 ft 245 kts 139°
2026-05-03 23:03 30.01294 -95.89541 7434 ft 240 kts 124°
2026-05-03 23:03 30.00311 -95.87983 7375 ft 240 kts 122°
2026-05-03 23:03 29.99425 -95.86358 7295 ft 238 kts 106°
2026-05-03 23:04 29.99147 -95.84514 7253 ft 232 kts 88°
2026-05-03 23:04 29.99153 -95.82655 7191 ft 232 kts 85°
2026-05-03 23:04 29.99186 -95.80789 7125 ft 233 kts 85°
2026-05-03 23:04 29.99210 -95.78918 7061 ft 233 kts 86°
2026-05-03 23:05 29.99225 -95.77068 6989 ft 229 kts 86°
2026-05-03 23:05 29.99240 -95.75191 6602 ft 238 kts 86°
2026-05-03 23:05 29.99252 -95.73260 6169 ft 245 kts 86°
2026-05-03 23:05 29.99262 -95.71280 5885 ft 243 kts 86°
2026-05-03 23:06 29.99312 -95.69380 5713 ft 232 kts 85°
2026-05-03 23:06 29.99326 -95.68813 5619 ft 231 kts 85°
2026-05-03 23:06 29.99354 -95.66987 5334 ft 224 kts 86°
2026-05-03 23:06 29.99359 -95.65222 5044 ft 215 kts 87°
2026-05-03 23:07 29.99357 -95.63530 4763 ft 207 kts 87°
2026-05-03 23:07 29.99353 -95.61900 4490 ft 200 kts 87°
2026-05-03 23:07 29.99354 -95.60326 4222 ft 193 kts 86°
2026-05-03 23:07 29.99351 -95.58805 3973 ft 187 kts 86°
2026-05-03 23:08 29.99351 -95.57316 3737 ft 185 kts 87°
2026-05-03 23:08 29.99349 -95.55848 3503 ft 181 kts 86°
2026-05-03 23:08 29.99353 -95.54404 3274 ft 179 kts 87°
2026-05-03 23:08 29.99351 -95.52955 3024 ft 181 kts 86°
2026-05-03 23:09 29.99349 -95.51512 2772 ft 177 kts 86°
2026-05-03 23:09 29.99346 -95.50084 2536 ft 179 kts 87°
2026-05-03 23:09 29.99342 -95.48661 2304 ft 175 kts 87°
2026-05-03 23:09 29.99341 -95.47301 2126 ft 163 kts 86°
2026-05-03 23:10 29.99343 -95.46038 1903 ft 154 kts 87°
2026-05-03 23:10 29.99329 -95.44805 1701 ft 153 kts 85°
2026-05-03 23:10 29.99338 -95.43572 1480 ft 155 kts 85°
2026-05-03 23:10 29.99340 -95.42313 1278 ft 156 kts 86°
2026-05-03 23:11 29.99340 -95.41085 1054 ft 151 kts 86°
2026-05-03 23:11 29.99342 -95.39849 869 ft 156 kts 89°
2026-05-03 23:11 29.99340 -95.38624 661 ft 150 kts 92°
2026-05-03 23:11 29.99349 -95.37425 459 ft 151 kts 92°
2026-05-03 23:12 29.99351 -95.36198 268 ft 152 kts 94°
2026-05-03 23:12 29.99346 -95.35031 109 ft 139 kts 93°
2026-05-03 23:12 29.99342 -95.34073 105 ft 86 kts 90°
2026-05-03 23:12 29.99342 -95.33626 107 ft 38 kts 90°
2026-05-03 23:13 29.99320 -95.33335 107 ft 35 kts 105°
2026-05-03 23:13 29.99255 -95.33176 106 ft 16 kts 119°
2026-05-03 23:13 29.99199 -95.33070 106 ft 15 kts 121°
2026-05-03 23:13 29.99111 -95.33026 106 ft 15 kts 181°
2026-05-03 23:14 29.99011 -95.33027 106 ft 14 kts 179°
2026-05-03 23:14 29.98916 -95.33024 106 ft 13 kts 179°
2026-05-03 23:14 29.98825 -95.33025 106 ft 13 kts 182°
2026-05-03 23:14 29.98736 -95.33028 106 ft 13 kts 178°
2026-05-03 23:15 29.98650 -95.33025 106 ft 12 kts 179°
2026-05-03 23:15 29.98565 -95.33026 106 ft 12 kts 178°
2026-05-03 23:15 29.98483 -95.33026 106 ft 12 kts 180°
2026-05-03 23:15 29.98390 -95.33026 106 ft 14 kts 179°
2026-05-03 23:16 29.98307 -95.33053 106 ft 13 kts 238°
2026-05-03 23:16 29.98300 -95.33122 106 ft 13 kts 270°
2026-05-03 23:16 29.98301 -95.33255 106 ft 12 kts 270°
2026-05-03 23:16 29.98301 -95.33322 106 ft 12 kts 270°
2026-05-03 23:17 29.98300 -95.33419 106 ft 12 kts 270°
2026-05-03 23:17 29.98300 -95.33513 106 ft 12 kts 270°
2026-05-03 23:17 29.98306 -95.33604 106 ft 11 kts 275°
2026-05-03 23:17 29.98324 -95.33666 106 ft 7 kts 338°
2026-05-03 23:18 29.98372 -95.33667 106 ft 7 kts
2026-05-03 23:18 29.98421 -95.33666 106 ft 7 kts
2026-05-03 23:18 29.98462 -95.33660 106 ft 3 kts 29°
2026-05-03 23:18 29.98468 -95.33634 106 ft 4 kts 92°
2026-05-03 23:19 29.98467 -95.33605 106 ft 4 kts 90°
2026-05-03 23:19 29.98467 -95.33582 106 ft 0 kts 90°